Time,TemperatureF,DewpointF,PressureIn,WindDirection,WindDirectionDegrees,WindSpeedMPH,WindSpeedGustMPH,Humidity,HourlyPrecipIn,Conditions,Clouds,dailyrainin,SoftwareType,DateUTC
2013-03-15 00:02:00,17.5,6.0,29.83,WNW,288,6.0,14.0,60,0.00,,,0.00,weatherlink.com 1.10,2013-03-15 04:02:00,
2013-03-15 00:17:00,17.3,5.0,29.83,WNW,298,4.0,13.0,60,0.00,,,0.00,weatherlink.com 1.10,2013-03-15 04:17:00,
2013-03-15 00:32:00,17.1,5.0,29.84,West,275,2.0,12.0,60,0.00,,,0.00,weatherlink.com 1.10,2013-03-15 04:32:00,
2013-03-15 00:47:00,17.0,5.0,29.84,West,268,7.0,11.0,59,0.00,,,0.00,weatherlink.com 1.10,2013-03-15 04:47:00,
2013-03-15 01:02:00,17.0,5.0,29.84,West,277,6.0,18.0,60,0.00,,,0.00,weatherlink.com 1.10,2013-03-15 05:02:00,
2013-03-15 01:17:00,16.9,5.0,29.84,WNW,294,7.0,14.0,61,0.00,,,0.00,weatherlink.com 1.10,2013-03-15 05:17:00,
2013-03-15 01:32:00,16.9,5.0,29.84,WNW,299,2.0,12.0,61,0.00,,,0.00,weatherlink.com 1.10,2013-03-15 05:32:00,
2013-03-15 01:47:00,16.8,5.0,29.84,WNW,289,10.0,11.0,61,0.00,,,0.00,weatherlink.com 1.10,2013-03-15 05:47:00,
2013-03-15 02:02:00,16.8,6.0,29.84,West,279,9.0,14.0,63,0.00,,,0.00,weatherlink.com 1.10,2013-03-15 06:02:00,
2013-03-15 02:17:00,16.9,6.0,29.84,SW,228,7.0,18.0,62,0.00,,,0.00,weatherlink.com 1.10,2013-03-15 06:17:00,
2013-03-15 02:32:00,16.9,6.0,29.85,NW,318,5.0,14.0,63,0.00,,,0.00,weatherlink.com 1.10,2013-03-15 06:32:00,
2013-03-15 02:47:00,16.8,6.0,29.85,WNW,283,8.0,13.0,63,0.00,,,0.00,weatherlink.com 1.10,2013-03-15 06:47:00,
2013-03-15 03:02:00,16.6,6.0,29.85,WNW,286,9.0,15.0,63,0.00,,,0.00,weatherlink.com 1.10,2013-03-15 07:02:00,
2013-03-15 03:17:00,16.4,5.0,29.84,North,350,0.0,19.0,61,0.00,,,0.00,weatherlink.com 1.10,2013-03-15 07:17:00,
2013-03-15 03:32:00,16.2,6.0,29.84,West,280,1.0,8.0,63,0.00,,,0.00,weatherlink.com 1.10,2013-03-15 07:32:00,
2013-03-15 03:47:00,15.9,6.0,29.83,WNW,288,6.0,10.0,64,0.00,,,0.00,weatherlink.com 1.10,2013-03-15 07:47:00,
2013-03-15 04:04:00,15.8,5.0,29.83,West,279,9.0,14.0,63,0.00,,,0.00,weatherlink.com 1.10,2013-03-15 08:04:00,
2013-03-15 04:17:00,15.7,5.0,29.83,West,266,6.0,16.0,64,0.00,,,0.00,weatherlink.com 1.10,2013-03-15 08:17:00,
2013-03-15 04:32:00,15.4,5.0,29.83,West,266,6.0,12.0,64,0.00,,,0.00,weatherlink.com 1.10,2013-03-15 08:32:00,
2013-03-15 04:47:00,15.4,6.0,29.83,WNW,286,5.0,14.0,65,0.00,,,0.00,weatherlink.com 1.10,2013-03-15 08:47:00,
2013-03-15 05:02:00,15.4,6.0,29.83,WSW,258,8.0,18.0,65,0.00,,,0.00,weatherlink.com 1.10,2013-03-15 09:02:00,
2013-03-15 05:18:00,15.4,6.0,29.83,NW,317,6.0,11.0,65,0.00,,,0.00,weatherlink.com 1.10,2013-03-15 09:18:00,
2013-03-15 05:33:00,15.4,6.0,29.84,WNW,303,9.0,13.0,65,0.00,,,0.00,weatherlink.com 1.10,2013-03-15 09:33:00,
2013-03-15 05:48:00,15.3,5.0,29.84,West,281,4.0,10.0,65,0.00,,,0.00,weatherlink.com 1.10,2013-03-15 09:48:00,
2013-03-15 06:03:00,15.3,6.0,29.85,West,274,4.0,11.0,66,0.00,,,0.00,weatherlink.com 1.10,2013-03-15 10:03:00,
2013-03-15 06:18:00,15.3,5.0,29.85,NNW,338,6.0,13.0,65,0.00,,,0.00,weatherlink.com 1.10,2013-03-15 10:18:00,
2013-03-15 06:33:00,15.3,5.0,29.85,NW,306,4.0,11.0,65,0.00,,,0.00,weatherlink.com 1.10,2013-03-15 10:33:00,
2013-03-15 06:48:00,15.3,5.0,29.85,WNW,300,2.0,8.0,65,0.00,,,0.00,weatherlink.com 1.10,2013-03-15 10:48:00,
2013-03-15 07:03:00,15.3,6.0,29.85,West,273,5.0,10.0,66,0.00,,,0.00,weatherlink.com 1.10,2013-03-15 11:03:00,
2013-03-15 07:18:00,15.3,5.0,29.84,West,271,4.0,15.0,65,0.00,,,0.00,weatherlink.com 1.10,2013-03-15 11:18:00,
2013-03-15 07:33:00,15.4,6.0,29.84,NW,309,4.0,10.0,66,0.00,,,0.00,weatherlink.com 1.10,2013-03-15 11:33:00,
2013-03-15 07:48:00,15.8,6.0,29.84,NW,306,3.0,13.0,65,0.00,,,0.00,weatherlink.com 1.10,2013-03-15 11:48:00,
2013-03-15 08:03:00,16.1,6.0,29.84,West,276,4.0,13.0,64,0.00,,,0.00,weatherlink.com 1.10,2013-03-15 12:03:00,
2013-03-15 08:18:00,17.2,6.0,29.84,West,262,8.0,13.0,62,0.00,,,0.00,weatherlink.com 1.10,2013-03-15 12:18:00,
2013-03-15 08:33:00,17.8,6.0,29.84,WNW,294,4.0,16.0,61,0.00,,,0.00,weatherlink.com 1.10,2013-03-15 12:33:00,
2013-03-15 08:48:00,18.1,6.0,29.84,WNW,295,8.0,15.0,60,0.00,,,0.00,weatherlink.com 1.10,2013-03-15 12:48:00,
2013-03-15 09:03:00,18.5,7.0,29.84,WNW,302,5.0,15.0,61,0.00,,,0.00,weatherlink.com 1.10,2013-03-15 13:03:00,
2013-03-15 09:18:00,19.1,7.0,29.84,WNW,283,7.0,19.0,59,0.00,,,0.00,weatherlink.com 1.10,2013-03-15 13:18:00,
2013-03-15 09:33:00,19.3,7.0,29.84,WSW,254,8.0,15.0,59,0.00,,,0.00,weatherlink.com 1.10,2013-03-15 13:33:00,
2013-03-15 09:48:00,20.3,8.0,29.83,NW,313,0.0,8.0,59,0.00,,,0.00,weatherlink.com 1.10,2013-03-15 13:48:00,
2013-03-15 10:18:00,22.9,8.0,29.81,NW,305,5.0,12.0,53,0.00,,,0.00,weatherlink.com 1.10,2013-03-15 14:18:00,
2013-03-15 10:33:00,24.0,9.0,29.80,WNW,298,5.0,12.0,53,0.00,,,0.00,weatherlink.com 1.10,2013-03-15 14:33:00,
2013-03-15 10:48:00,24.3,7.0,29.79,WNW,302,4.0,14.0,48,0.00,,,0.00,weatherlink.com 1.10,2013-03-15 14:48:00,
2013-03-15 11:03:00,25.1,7.0,29.79,West,262,8.0,13.0,47,0.00,,,0.00,weatherlink.com 1.10,2013-03-15 15:03:00,
2013-03-15 11:21:00,25.7,8.0,29.78,West,273,6.0,12.0,48,0.00,,,0.00,weatherlink.com 1.10,2013-03-15 15:21:00,
2013-03-15 11:33:00,26.6,9.0,29.77,WNW,287,5.0,9.0,47,0.00,,,0.00,weatherlink.com 1.10,2013-03-15 15:33:00,
2013-03-15 11:48:00,27.7,8.0,29.76,NNW,333,2.0,8.0,43,0.00,,,0.00,weatherlink.com 1.10,2013-03-15 15:48:00,
2013-03-15 12:03:00,27.9,8.0,29.75,West,279,6.0,12.0,43,0.00,,,0.00,weatherlink.com 1.10,2013-03-15 16:03:00,
2013-03-15 12:18:00,28.9,7.0,29.74,West,281,4.0,10.0,40,0.00,,,0.00,weatherlink.com 1.10,2013-03-15 16:18:00,
2013-03-15 12:33:00,29.6,8.0,29.73,WNW,289,6.0,10.0,41,0.00,,,0.00,weatherlink.com 1.10,2013-03-15 16:33:00,
2013-03-15 12:49:00,30.3,8.0,29.72,SW,222,8.0,10.0,39,0.00,,,0.00,weatherlink.com 1.10,2013-03-15 16:49:00,
2013-03-15 13:04:00,31.1,9.0,29.71,WNW,299,3.0,8.0,39,0.00,,,0.00,weatherlink.com 1.10,2013-03-15 17:04:00,
2013-03-15 13:19:00,31.9,8.0,29.70,West,273,5.0,8.0,36,0.00,,,0.00,weatherlink.com 1.10,2013-03-15 17:19:00,
2013-03-15 13:49:00,33.1,9.0,29.68,WSW,255,3.0,10.0,37,0.00,,,0.00,weatherlink.com 1.10,2013-03-15 17:49:00,
2013-03-15 14:04:00,33.5,10.0,29.66,West,281,4.0,7.0,38,0.00,,,0.00,weatherlink.com 1.10,2013-03-15 18:04:00,
2013-03-15 14:19:00,33.9,10.0,29.65,SSE,147,3.0,8.0,37,0.00,,,0.00,weatherlink.com 1.10,2013-03-15 18:19:00,
2013-03-15 14:34:00,34.9,13.0,29.64,West,278,6.0,10.0,40,0.00,,,0.00,weatherlink.com 1.10,2013-03-15 18:34:00,
2013-03-15 14:49:00,34.8,13.0,29.63,WSW,250,0.0,10.0,40,0.00,,,0.00,weatherlink.com 1.10,2013-03-15 18:49:00,
2013-03-15 15:04:00,35.2,15.0,29.63,West,278,6.0,10.0,43,0.00,,,0.00,weatherlink.com 1.10,2013-03-15 19:04:00,
2013-03-15 15:19:00,35.1,17.0,29.62,West,261,4.0,14.0,47,0.00,,,0.00,weatherlink.com 1.10,2013-03-15 19:19:00,
2013-03-15 15:34:00,34.5,17.0,29.62,WNW,290,10.0,14.0,50,0.00,,,0.00,weatherlink.com 1.10,2013-03-15 19:34:00,
2013-03-15 15:49:00,34.0,19.0,29.62,West,275,8.0,14.0,54,0.00,,,0.00,weatherlink.com 1.10,2013-03-15 19:49:00,
2013-03-15 16:03:00,33.3,19.0,29.61,West,279,6.0,12.0,57,0.00,,,0.00,weatherlink.com 1.10,2013-03-15 20:03:00,
2013-03-15 16:19:00,33.1,20.0,29.61,West,273,3.0,10.0,59,0.00,,,0.00,weatherlink.com 1.10,2013-03-15 20:19:00,
2013-03-15 16:34:00,33.2,21.0,29.61,South,184,5.0,11.0,60,0.00,,,0.00,weatherlink.com 1.10,2013-03-15 20:34:00,
2013-03-15 16:49:00,33.0,22.0,29.60,WSW,251,0.0,12.0,63,0.00,,,0.00,weatherlink.com 1.10,2013-03-15 20:49:00,
2013-03-15 17:19:00,32.0,24.0,29.60,SW,216,2.0,6.0,72,0.00,,,0.00,weatherlink.com 1.10,2013-03-15 21:19:00,
2013-03-15 17:35:00,30.6,26.0,29.61,West,281,4.0,8.0,82,0.00,,,0.00,weatherlink.com 1.10,2013-03-15 21:35:00,
2013-03-15 17:49:00,30.1,26.0,29.61,West,279,2.0,4.0,85,0.00,,,0.00,weatherlink.com 1.10,2013-03-15 21:49:00,
2013-03-15 18:04:00,30.0,27.0,29.60,WNW,291,0.0,3.0,87,0.00,,,0.00,weatherlink.com 1.10,2013-03-15 22:04:00,
2013-03-15 18:19:00,30.0,27.0,29.61,WNW,291,1.0,2.0,88,0.00,,,0.00,weatherlink.com 1.10,2013-03-15 22:19:00,
2013-03-15 18:34:00,29.9,27.0,29.61,WNW,291,2.0,3.0,90,0.00,,,0.00,weatherlink.com 1.10,2013-03-15 22:34:00,
2013-03-15 18:49:00,29.8,27.0,29.61,WNW,292,0.0,3.0,90,0.00,,,0.00,weatherlink.com 1.10,2013-03-15 22:49:00,
2013-03-15 19:19:00,29.7,27.0,29.61,WNW,292,0.0,0.0,91,0.00,,,0.00,weatherlink.com 1.10,2013-03-15 23:19:00,
2013-03-15 19:34:00,29.6,27.0,29.61,WNW,292,0.0,0.0,91,0.00,,,0.00,weatherlink.com 1.10,2013-03-15 23:34:00,
2013-03-15 19:49:00,29.5,27.0,29.61,WNW,292,0.0,0.0,91,0.00,,,0.00,weatherlink.com 1.10,2013-03-15 23:49:00,
2013-03-15 20:04:00,29.5,28.0,29.61,WNW,292,0.0,0.0,92,0.00,,,0.00,weatherlink.com 1.10,2013-03-16 00:04:00,
2013-03-15 20:19:00,29.6,28.0,29.61,WNW,292,0.0,0.0,92,0.00,,,0.00,weatherlink.com 1.10,2013-03-16 00:19:00,
2013-03-15 20:34:00,29.7,28.0,29.61,WNW,292,0.0,0.0,92,0.00,,,0.00,weatherlink.com 1.10,2013-03-16 00:34:00,
2013-03-15 20:49:00,29.8,28.0,29.61,WNW,292,0.0,0.0,93,0.00,,,0.00,weatherlink.com 1.10,2013-03-16 00:49:00,
2013-03-15 21:04:00,29.8,28.0,29.61,WNW,292,0.0,0.0,93,0.00,,,0.00,weatherlink.com 1.10,2013-03-16 01:04:00,
2013-03-15 21:19:00,29.7,28.0,29.61,WNW,292,0.0,0.0,94,0.00,,,0.00,weatherlink.com 1.10,2013-03-16 01:19:00,
2013-03-15 21:34:00,29.8,28.0,29.61,WNW,292,0.0,0.0,94,0.00,,,0.00,weatherlink.com 1.10,2013-03-16 01:34:00,
2013-03-15 21:49:00,29.7,28.0,29.61,WNW,292,0.0,0.0,94,0.00,,,0.00,weatherlink.com 1.10,2013-03-16 01:49:00,
2013-03-15 22:04:00,29.7,28.0,29.60,WNW,292,0.0,1.0,94,0.00,,,0.00,weatherlink.com 1.10,2013-03-16 02:04:00,
2013-03-15 22:19:00,29.9,28.0,29.62,WNW,286,3.0,6.0,94,0.00,,,0.00,weatherlink.com 1.10,2013-03-16 02:19:00,
2013-03-15 22:35:00,28.6,27.0,29.64,NW,312,3.0,15.0,94,0.00,,,0.00,weatherlink.com 1.10,2013-03-16 02:35:00,
2013-03-15 22:49:00,28.4,26.0,29.65,West,281,5.0,7.0,92,0.00,,,0.00,weatherlink.com 1.10,2013-03-16 02:49:00,
2013-03-15 23:05:00,28.2,25.0,29.66,West,261,5.0,7.0,89,0.00,,,0.00,weatherlink.com 1.10,2013-03-16 03:05:00,
2013-03-15 23:20:00,28.2,23.0,29.66,West,269,6.0,10.0,82,0.00,,,0.00,weatherlink.com 1.10,2013-03-16 03:20:00,
2013-03-15 23:35:00,28.0,22.0,29.67,WNW,299,2.0,10.0,79,0.00,,,0.00,weatherlink.com 1.10,2013-03-16 03:35:00,
2013-03-15 23:50:00,27.4,22.0,29.68,West,272,2.0,5.0,80,0.00,,,0.00,weatherlink.com 1.10,2013-03-16 03:50:00,